�������l�o���
Date,Time,MP-1(��Sv/h),MP-2(��Sv/h),MP-3(��Sv/h),MP-4(��Sv/h),MP-5(��Sv/h),MP-6(��Sv/h),MP-7(��Sv/h),MP-8(��Sv/h),����,����(m/s),���J
2018/11/02,00:00,0.788,1.197,0.838,1.499,1.085,0.460,0.809,0.766,��,4.2,��
2018/11/02,00:10,0.789,1.197,0.836,1.499,1.089,0.458,0.810,0.767,��,4.1,��
2018/11/02,00:20,0.787,1.198,0.837,1.498,1.087,0.459,0.811,0.767,��,4.7,��
2018/11/02,00:30,0.789,1.197,0.838,1.498,1.086,0.459,0.809,0.766,��,5.2,��
2018/11/02,00:40,0.789,1.198,0.837,1.501,1.089,0.459,0.810,0.766,��,6.6,��
2018/11/02,00:50,0.789,1.197,0.838,1.500,1.085,0.459,0.810,0.766,��,6.2,��
2018/11/02,01:00,0.790,1.196,0.838,1.500,1.086,0.458,0.811,0.766,��,6.5,��
2018/11/02,01:10,0.790,1.197,0.837,1.499,1.087,0.459,0.808,0.765,��,6.0,��
2018/11/02,01:20,0.789,1.197,0.837,1.500,1.086,0.460,0.811,0.766,��,4.6,��
2018/11/02,01:30,0.790,1.195,0.837,1.497,1.086,0.458,0.810,0.765,��,3.8,��
2018/11/02,01:40,0.790,1.198,0.838,1.500,1.085,0.459,0.809,0.766,��,3.8,��
2018/11/02,01:50,0.788,1.198,0.837,1.499,1.084,0.459,0.809,0.766,���k��,4.3,��
2018/11/02,02:00,0.790,1.197,0.838,1.498,1.086,0.457,0.809,0.764,���k��,4.1,��
2018/11/02,02:10,0.787,1.197,0.838,1.499,1.087,0.459,0.808,0.764,���k��,5.2,��
2018/11/02,02:20,0.788,1.196,0.839,1.499,1.084,0.459,0.808,0.764,���k��,5.3,��
2018/11/02,02:30,0.789,1.198,0.837,1.499,1.087,0.460,0.812,0.765,���k��,4.3,��
2018/11/02,02:40,0.787,1.198,0.836,1.499,1.085,0.459,0.808,0.765,���k��,4.8,��
2018/11/02,02:50,0.790,1.195,0.839,1.499,1.084,0.459,0.808,0.764,���k��,5.5,��
2018/11/02,03:00,0.788,1.197,0.838,1.499,1.085,0.458,0.808,0.764,���k��,3.9,��
2018/11/02,03:10,0.787,1.194,0.840,1.502,1.085,0.458,0.809,0.766,���k��,5.3,��
2018/11/02,03:20,0.787,1.195,0.840,1.499,1.086,0.459,0.810,0.764,���k��,4.8,��
2018/11/02,03:30,0.787,1.196,0.837,1.497,1.085,0.458,0.810,0.765,���k��,4.7,��
2018/11/02,03:40,0.788,1.198,0.838,1.499,1.086,0.459,0.809,0.767,���k��,3.1,��
2018/11/02,03:50,0.789,1.198,0.835,1.500,1.084,0.461,0.809,0.766,���k��,3.4,��
2018/11/02,04:00,0.787,1.198,0.837,1.499,1.086,0.458,0.810,0.765,���k��,4.1,��
2018/11/02,04:10,0.788,1.196,0.836,1.500,1.085,0.459,0.809,0.764,���k��,4.8,��
2018/11/02,04:20,0.789,1.194,0.835,1.501,1.085,0.458,0.809,0.765,���k��,5.1,��
2018/11/02,04:30,0.787,1.196,0.835,1.499,1.085,0.459,0.808,0.765,���k��,5.7,��
2018/11/02,04:40,0.788,1.195,0.838,1.500,1.085,0.459,0.809,0.766,�k��,4.5,��
2018/11/02,04:50,0.786,1.196,0.838,1.499,1.084,0.458,0.811,0.765,�k��,4.3,��
2018/11/02,05:00,0.788,1.196,0.837,1.501,1.082,0.458,0.808,0.765,�k��,3.6,��
2018/11/02,05:10,0.786,1.195,0.838,1.497,1.084,0.458,0.809,0.767,�k��,4.2,��
2018/11/02,05:20,0.788,1.197,0.836,1.499,1.083,0.457,0.811,0.764,���k��,3.8,��
2018/11/02,05:30,0.785,1.195,0.836,1.496,1.085,0.460,0.809,0.764,���k��,4.1,��
2018/11/02,05:40,0.786,1.194,0.837,1.497,1.084,0.458,0.808,0.767,��,2.6,��
2018/11/02,05:50,0.787,1.194,0.839,1.496,1.085,0.459,0.808,0.764,��,2.9,��
2018/11/02,06:00,0.787,1.194,0.836,1.497,1.083,0.458,0.809,0.764,��,3.3,��
2018/11/02,06:10,0.787,1.198,0.838,1.496,1.085,0.459,0.807,0.766,��,3.1,��
2018/11/02,06:20,0.787,1.197,0.837,1.499,1.085,0.458,0.809,0.765,��,3.3,��
2018/11/02,06:30,0.788,1.193,0.838,1.497,1.082,0.458,0.808,0.765,�k��,3.3,��
2018/11/02,06:40,0.786,1.196,0.835,1.497,1.084,0.458,0.808,0.765,���k��,3.6,��
2018/11/02,06:50,0.787,1.193,0.837,1.496,1.083,0.459,0.809,0.765,���k��,4.1,��
2018/11/02,07:00,0.788,1.193,0.837,1.497,1.083,0.459,0.809,0.767,��,3.5,��
2018/11/02,07:10,0.787,1.194,0.837,1.500,1.084,0.459,0.810,0.765,��,4.3,��
2018/11/02,07:20,0.786,1.198,0.838,1.499,1.083,0.458,0.810,0.766,��,3.7,��
2018/11/02,07:30,0.787,1.196,0.836,1.499,1.082,0.460,0.809,0.766,��,2.9,��
2018/11/02,07:40,0.787,1.197,0.836,1.500,1.082,0.459,0.809,0.767,��,3.3,��
2018/11/02,07:50,0.788,1.195,0.835,1.498,1.084,0.459,0.810,0.766,��,3.4,��
2018/11/02,08:00,0.789,1.196,0.836,1.502,1.086,0.459,0.812,0.767,��,3.7,��
2018/11/02,08:10,0.789,1.198,0.836,1.500,1.085,0.458,0.810,0.767,���k��,4.2,��
2018/11/02,08:20,0.790,1.196,0.837,1.501,1.084,0.459,0.809,0.766,���k��,2.6,��
2018/11/02,08:30,0.789,1.197,0.838,1.499,1.085,0.459,0.810,0.767,���k��,1.5,��
2018/11/02,08:40,0.788,1.193,0.837,1.500,1.085,0.458,0.807,0.765,�k��,2.0,��
2018/11/02,08:50,0.790,1.192,0.838,1.500,1.087,0.460,0.808,0.767,���k��,1.7,��
2018/11/02,09:00,0.789,1.192,0.839,1.501,1.085,0.460,0.807,0.767,�쐼,1.1,��
2018/11/02,09:10,0.792,1.189,0.839,1.500,1.088,0.460,0.808,0.767,���k��,1.7,��
2018/11/02,09:20,0.792,1.196,0.838,1.502,1.087,0.460,0.809,0.768,�k��,1.7,��
2018/11/02,09:30,0.789,1.193,0.838,1.500,1.087,0.461,0.809,0.768,�k��,4.2,��
2018/11/02,09:40,0.792,1.187,0.838,1.500,1.088,0.461,0.809,0.766,�k��,3.3,��
2018/11/02,09:50,0.792,1.190,0.838,1.498,1.088,0.459,0.809,0.768,�k�k��,2.6,��
2018/11/02,10:00,0.791,1.195,0.841,1.497,1.087,0.458,0.810,0.768,�k�k��,0.9,��
2018/11/02,10:10,0.788,1.192,0.840,1.500,1.085,0.459,0.809,0.768,�k�k��,0.9,��
2018/11/02,10:20,0.790,1.188,0.840,1.500,1.088,0.459,0.808,0.768,�k,3.2,��
2018/11/02,10:30,0.790,1.191,0.838,1.500,1.086,0.457,0.808,0.766,�k��,3.7,��
2018/11/02,10:40,0.789,1.195,0.839,1.503,1.084,0.459,0.810,0.766,���k��,3.8,��
2018/11/02,10:50,0.791,1.194,0.839,1.503,1.086,0.457,0.809,0.766,�k��,4.0,��
2018/11/02,11:00,0.789,1.192,0.837,1.503,1.086,0.457,0.809,0.766,�k��,4.1,��
2018/11/02,11:10,0.790,1.197,0.842,1.501,1.087,0.457,0.810,0.764,�k��,3.3,��
2018/11/02,11:20,0.789,1.194,0.840,1.500,1.087,0.458,0.809,0.763,���k��,3.4,��
2018/11/02,11:30,0.791,1.194,0.842,1.501,1.088,0.458,0.810,0.765,�k��,4.0,��
2018/11/02,11:40,0.790,1.195,0.840,1.500,1.090,0.457,0.809,0.766,�k��,3.6,��
2018/11/02,11:50,0.791,1.195,0.841,1.502,1.090,0.457,0.811,0.765,�k��,3.8,��
2018/11/02,12:00,0.790,1.196,0.840,1.502,1.088,0.459,0.809,0.766,���k��,2.6,��
2018/11/02,12:10,0.790,1.197,0.839,1.501,1.089,0.459,0.810,0.765,���k��,2.6,��
2018/11/02,12:20,0.793,1.197,0.837,1.500,1.089,0.459,0.811,0.766,���k��,3.3,��
2018/11/02,12:30,0.790,1.198,0.837,1.502,1.087,0.460,0.810,0.766,��,2.9,��
2018/11/02,12:40,0.790,1.194,0.838,1.504,1.091,0.460,0.810,0.766,�k��,3.0,��
2018/11/02,12:50,0.790,1.195,0.838,1.502,1.090,0.460,0.810,0.765,���k��,3.1,��
2018/11/02,13:00,0.793,1.194,0.839,1.503,1.089,0.460,0.810,0.764,�k��,2.5,��
2018/11/02,13:10,0.792,1.194,0.836,1.499,1.087,0.460,0.811,0.762,���k��,2.9,��
2018/11/02,13:20,0.790,1.195,0.839,1.502,1.090,0.458,0.811,0.763,���k��,3.6,��
2018/11/02,13:30,0.789,1.198,0.838,1.502,1.089,0.461,0.810,0.763,�k��,2.8,��
2018/11/02,13:40,0.791,1.196,0.839,1.502,1.090,0.460,0.809,0.765,���k��,2.6,��
2018/11/02,13:50,0.791,1.196,0.838,1.500,1.089,0.460,0.810,0.762,���k��,2.6,��
2018/11/02,14:00,0.791,1.194,0.839,1.502,1.090,0.459,0.808,0.764,�k��,2.3,��
2018/11/02,14:10,0.792,1.194,0.840,1.502,1.088,0.459,0.811,0.764,���k��,2.6,��
2018/11/02,14:20,0.790,1.192,0.840,1.501,1.090,0.458,0.809,0.762,���k��,2.6,��
2018/11/02,14:30,0.790,1.193,0.839,1.502,1.090,0.458,0.809,0.764,�k��,2.6,��
2018/11/02,14:40,0.790,1.194,0.839,1.503,1.090,0.459,0.810,0.763,��,1.5,��
2018/11/02,14:50,0.791,1.194,0.838,1.505,1.089,0.460,0.809,0.765,��,1.4,��
2018/11/02,15:00,0.791,1.197,0.840,1.501,1.087,0.461,0.810,0.763,���k��,1.4,��
2018/11/02,15:10,0.791,1.193,0.838,1.501,1.088,0.462,0.810,0.765,��,1.4,��
2018/11/02,15:20,0.791,1.194,0.839,1.502,1.088,0.461,0.811,0.764,�쓌,1.2,��
2018/11/02,15:30,0.789,1.198,0.839,1.502,1.090,0.461,0.809,0.765,��,1.5,��
2018/11/02,15:40,0.790,1.198,0.839,1.503,1.089,0.460,0.810,0.766,���쓌,0.9,��
2018/11/02,15:50,0.791,1.200,0.841,1.502,1.090,0.461,0.812,0.765,���k��,1.4,��
2018/11/02,16:00,0.791,1.201,0.844,1.501,1.092,0.461,0.811,0.769,�쓌,1.2,��
2018/11/02,16:10,0.792,1.199,0.840,1.504,1.092,0.460,0.811,0.766,��쓌,1.4,��
2018/11/02,16:20,0.793,1.203,0.840,1.503,1.094,0.461,0.812,0.767,��쐼,0.8,��
2018/11/02,16:30,0.794,1.201,0.842,1.501,1.092,0.461,0.812,0.767,��,0.9,��
2018/11/02,16:40,0.794,1.201,0.841,1.504,1.090,0.460,0.811,0.767,��쓌,0.9,��
2018/11/02,16:50,0.792,1.202,0.841,1.502,1.091,0.461,0.811,0.765,��쐼,1.2,��
2018/11/02,17:00,0.794,1.204,0.842,1.504,1.094,0.461,0.810,0.768,�쐼,1.5,��
2018/11/02,17:10,0.792,1.201,0.841,1.502,1.092,0.462,0.809,0.768,�쐼,1.9,��
2018/11/02,17:20,0.792,1.203,0.842,1.503,1.093,0.462,0.809,0.768,�쐼,1.7,��
2018/11/02,17:30,0.793,1.200,0.840,1.503,1.092,0.462,0.811,0.767,�쐼,2.0,��
2018/11/02,17:40,0.793,1.199,0.840,1.503,1.092,0.462,0.812,0.766,�쐼,2.0,��
2018/11/02,17:50,0.793,1.203,0.841,1.504,1.091,0.462,0.810,0.766,�쐼,2.2,��
2018/11/02,18:00,0.793,1.204,0.841,1.503,1.092,0.462,0.811,0.767,�쐼,2.0,��
2018/11/02,18:10,0.792,1.203,0.841,1.504,1.090,0.461,0.809,0.767,�쐼,2.3,��
2018/11/02,18:20,0.791,1.200,0.843,1.504,1.091,0.461,0.811,0.765,��쐼,2.6,��
2018/11/02,18:30,0.791,1.202,0.842,1.503,1.092,0.461,0.811,0.767,�쐼,3.1,��
2018/11/02,18:40,0.794,1.201,0.842,1.503,1.093,0.460,0.809,0.766,�쐼,2.0,��
2018/11/02,18:50,0.793,1.204,0.839,1.505,1.091,0.460,0.810,0.767,���쐼,1.7,��
2018/11/02,19:00,0.791,1.202,0.841,1.503,1.091,0.461,0.808,0.767,�쐼,2.3,��
2018/11/02,19:10,0.794,1.202,0.841,1.504,1.090,0.461,0.810,0.769,��,2.9,��
2018/11/02,19:20,0.793,1.199,0.841,1.503,1.090,0.462,0.809,0.766,��,3.0,��
2018/11/02,19:30,0.792,1.204,0.840,1.502,1.091,0.459,0.809,0.766,���k��,2.6,��
2018/11/02,19:40,0.793,1.203,0.840,1.504,1.091,0.461,0.809,0.766,���k��,1.9,��
2018/11/02,19:50,0.792,1.200,0.841,1.501,1.090,0.461,0.809,0.768,�k��,2.3,��
2018/11/02,20:00,0.792,1.201,0.838,1.504,1.092,0.461,0.810,0.767,���k��,2.6,��
2018/11/02,20:10,0.793,1.199,0.841,1.502,1.089,0.458,0.810,0.765,�k��,2.5,��
2018/11/02,20:20,0.792,1.200,0.839,1.502,1.089,0.459,0.809,0.766,�k��,2.9,��
2018/11/02,20:30,0.794,1.202,0.839,1.503,1.090,0.459,0.808,0.767,���k��,4.0,��
2018/11/02,20:40,0.792,1.198,0.841,1.503,1.090,0.460,0.810,0.765,���k��,4.0,��
2018/11/02,20:50,0.790,1.200,0.840,1.502,1.089,0.459,0.809,0.766,���k��,4.3,��
2018/11/02,21:00,0.790,1.200,0.842,1.503,1.090,0.460,0.809,0.765,���k��,3.5,��
2018/11/02,21:10,0.789,1.200,0.839,1.502,1.087,0.459,0.810,0.765,���k��,3.5,��
2018/11/02,21:20,0.791,1.200,0.840,1.500,1.091,0.459,0.809,0.767,���k��,4.0,��
2018/11/02,21:30,0.791,1.198,0.840,1.502,1.090,0.460,0.810,0.767,���k��,5.4,��
2018/11/02,21:40,0.791,1.200,0.841,1.503,1.090,0.459,0.809,0.766,���k��,5.9,��
2018/11/02,21:50,0.791,1.199,0.838,1.501,1.087,0.459,0.809,0.766,���k��,6.4,��
2018/11/02,22:00,0.790,1.198,0.839,1.499,1.089,0.459,0.809,0.765,���k��,7.0,��
2018/11/02,22:10,0.789,1.198,0.841,1.500,1.089,0.460,0.811,0.764,���k��,5.5,��
2018/11/02,22:20,0.791,1.198,0.838,1.501,1.088,0.459,0.810,0.765,���k��,5.4,��
2018/11/02,22:30,0.791,1.198,0.837,1.502,1.091,0.459,0.810,0.765,���k��,5.2,��
2018/11/02,22:40,0.790,1.199,0.840,1.504,1.089,0.461,0.810,0.765,���k��,4.9,��
2018/11/02,22:50,0.791,1.196,0.839,1.500,1.089,0.459,0.810,0.766,���k��,5.6,��
2018/11/02,23:00,0.790,1.199,0.838,1.501,1.089,0.460,0.810,0.764,���k��,5.1,��
2018/11/02,23:10,0.789,1.197,0.838,1.500,1.087,0.459,0.808,0.766,���k��,4.3,��
2018/11/02,23:20,0.790,1.197,0.838,1.500,1.090,0.459,0.809,0.766,���k��,3.8,��
2018/11/02,23:30,0.790,1.199,0.837,1.503,1.089,0.460,0.810,0.766,���k��,2.9,��
2018/11/02,23:40,0.790,1.198,0.837,1.499,1.089,0.459,0.810,0.765,���k��,2.6,��
2018/11/02,23:50,0.790,1.198,0.840,1.501,1.088,0.460,0.809,0.765,��,2.3,��
